SL-8 DEB *, 3045

Orbit data source: Space-Track

SL-8 DEB *, 3045 is space debris in LEO originally from a launch on Fri, 03 Sep 1965 UTC launched from the Tyuratam Missile And Space Complex (TTMTR). Debris objects in space refer to the collection of defunct objects orbiting the Earth. Examples of debris include non-operational satellites, rocket bodies, and fragments generated from explosions, collisions, or faulty payload assembly.

Loading next visibility...
SL-8 DEB * details
Identifier
3045, 1965-070G
Orbit
LEO
Last TLE update1 day ago
Origin
Flag of CISUSAF SSD (CIS)
ManufacturerUnknown
MissionSpacecraft
Bus & MotorUnknown
MassUnknown
Launch date (UTC)
1965-09-03 (59 years ago)
Launch vehicleUnknown
Launch site
Tyuratam Missile And Space Complex (TTMTR)
Object type
Payload
Rocket body
Debris
Shape & HBRUnknown
Radar Cross SectionSmall (<0.1 m²)

Expand to show TLE details & history

TLE from 1 day ago
0 SL-8 DEB *
1 03045U 65070G   24355.15827042 -.00000148  00000-0 -31010-3 0  9991
2 03045  55.4289 280.0470 0292696  87.8451  27.0490 12.44485332621204
Epoch: 2024-12-20T03:47Z
Definitive object data (Epoch: 2024-12-20T03:47:54.564Z)
Latitude47.61292°
Longitude-94.85337°
Altitude1,289.64 km
Speed7.309 km/s
True Right ascension03h 25m 24s
True Declination47° 27' 13"
Sunlit
Object was in full shadow at TLE epoch
Visualization TLE readout
Latitude-16.66425°
Longitude118.36338°
Altitude1,564.974 km
Speed7.052 km/s
Apparent Right ascension19h 35m 32s
Apparent Declination-32° 50' 44"
Sunlit
Object is in daylight
Visualization observer readout
Local Sidereal Time10:53:40
Azimuth95.906° ESE
Elevation-50.017°
Doppler factor1
Orbital elements
Apogee altitude1,717.781 km
Perigee altitude1,257.33 km
Semi-major axis7,865.693 km
Eccentricity0.0292696
Inclination55.4289°
RAAN280.047°
Arg. of periapsis87.8451°
True anomaly28.62536°
Mean anomaly27.049°
Eccentric anomaly27.83197°
Mean motion3.11127 °/min
BSTAR-0.0003101
Orbital period115.71 mins
Loading maneuver chart data...
Loading historical data...
Loading historical data...
Loading historical data...
Loading historical data...
Loading historical data...
Loading historical data...
Loading historical data...

SL-8 DEB * Visibility forecast

Observer location: undefined°, undefined

Span
Click to sort rows by Start time (UTC) header in descending order
Start Az.
Max El. time (UTC)
Max El. Az.
Max El.
End time (UTC)
End Az.
12 mins2024-12-21 19:46:57.780Z172.055° S2024-12-21 19:52:57.780Z124.733° SE24.292°2024-12-21 19:58:57.780Z70.704° E
14 mins2024-12-21 21:46:57.780Z232.038° WSW2024-12-21 21:53:57.780Z351.315° N44.197°2024-12-21 22:00:57.780Z44.779° NE
12 mins2024-12-21 23:49:57.780Z287.286° WNW2024-12-21 23:55:57.780Z347.901° N27.257°2024-12-22 00:01:57.780Z41.099° NE
11 mins2024-12-22 01:53:57.780Z323.051° NNW2024-12-22 01:58:57.780Z12.76° NNE24.44°2024-12-22 02:04:57.780Z64.904° ENE
14 mins2024-12-22 03:54:57.780Z321.124° NNW2024-12-22 04:00:57.780Z28.351° NE39.723°2024-12-22 04:08:57.780Z113.189° SE
13 mins2024-12-22 05:55:57.780Z297.656° NW2024-12-22 06:01:57.780Z233.748° WSW34.059°2024-12-22 06:08:57.780Z169.499° S
|